TimeCDT,TemperatureF,Dew PointF,Humidity,Sea Level PressureIn,VisibilityMPH,Wind Direction,Wind SpeedMPH,Gust SpeedMPH,PrecipitationIn,Events,Conditions,WindDirDegrees,DateUTC
12:15 AM,66.6,55.0,66,30.09,10.0,North,-9999.0,-,N/A,,Clear,0,2013-07-01 05:15:00
12:35 AM,64.6,55.4,72,30.09,10.0,North,-9999.0,-,N/A,,Clear,0,2013-07-01 05:35:00
12:55 AM,64.6,55.6,73,30.10,10.0,North,-9999.0,-,N/A,,Clear,0,2013-07-01 05:55:00
1:15 AM,64.4,55.4,73,30.09,10.0,North,-9999.0,-,N/A,,Clear,0,2013-07-01 06:15:00
1:35 AM,64.6,55.6,73,30.09,10.0,North,-9999.0,-,N/A,,Clear,0,2013-07-01 06:35:00
1:55 AM,64.0,55.6,74,30.09,10.0,North,-9999.0,-,N/A,,Clear,0,2013-07-01 06:55:00
2:15 AM,64.0,55.0,73,30.09,10.0,North,-9999.0,-,N/A,,Clear,0,2013-07-01 07:15:00
2:35 AM,64.0,54.9,72,30.09,10.0,North,-9999.0,-,N/A,,Clear,0,2013-07-01 07:35:00
2:55 AM,63.7,54.7,72,30.09,10.0,North,-9999.0,-,N/A,,Clear,0,2013-07-01 07:55:00
3:15 AM,62.4,54.9,76,30.09,10.0,North,-9999.0,-,N/A,,Clear,0,2013-07-01 08:15:00
3:35 AM,60.8,54.5,80,30.09,10.0,North,-9999.0,-,N/A,,Clear,0,2013-07-01 08:35:00
3:55 AM,60.6,54.5,80,30.09,10.0,North,-9999.0,-,N/A,,Clear,0,2013-07-01 08:55:00
4:15 AM,61.2,54.5,79,30.10,10.0,North,-9999.0,-,N/A,,Clear,0,2013-07-01 09:15:00
4:35 AM,61.2,54.0,77,30.11,10.0,North,-9999.0,-,N/A,,Clear,0,2013-07-01 09:35:00
4:55 AM,54.9,52.3,91,30.11,10.0,North,-9999.0,-,N/A,,Clear,0,2013-07-01 09:55:00
5:15 AM,54.7,52.2,91,30.11,10.0,North,-9999.0,-,N/A,,Clear,0,2013-07-01 10:15:00
5:35 AM,60.8,54.3,79,30.11,10.0,North,-9999.0,-,N/A,,Clear,0,2013-07-01 10:35:00
5:55 AM,61.0,54.5,79,30.12,10.0,North,-9999.0,-,N/A,,Clear,0,2013-07-01 10:55:00
6:15 AM,55.8,53.1,91,30.13,10.0,North,-9999.0,-,N/A,,Clear,0,2013-07-01 11:15:00
6:35 AM,56.1,53.4,91,30.13,10.0,North,-9999.0,-,N/A,,Clear,0,2013-07-01 11:35:00
6:55 AM,55.6,53.8,94,30.14,10.0,North,-9999.0,-,N/A,,Clear,0,2013-07-01 11:55:00
7:15 AM,58.1,54.7,88,30.15,10.0,North,-9999.0,-,N/A,,Clear,0,2013-07-01 12:15:00
7:35 AM,60.4,55.6,84,30.15,10.0,North,-9999.0,-,N/A,,Clear,0,2013-07-01 12:35:00
7:55 AM,62.8,56.3,79,30.16,10.0,North,-9999.0,-,N/A,,Clear,0,2013-07-01 12:55:00
8:15 AM,65.3,56.8,74,30.16,10.0,North,-9999.0,-,N/A,,Clear,0,2013-07-01 13:15:00
8:35 AM,67.5,57.4,70,30.16,10.0,North,-9999.0,-,N/A,,Clear,0,2013-07-01 13:35:00
8:55 AM,68.4,57.6,68,30.16,10.0,North,-9999.0,-,N/A,,Clear,0,2013-07-01 13:55:00
9:15 AM,69.3,57.7,67,30.17,10.0,North,-9999.0,-,N/A,,Clear,0,2013-07-01 14:15:00
9:35 AM,71.1,58.6,65,30.17,10.0,North,-9999.0,-,N/A,,Clear,0,2013-07-01 14:35:00
9:55 AM,71.6,58.8,64,30.18,10.0,North,-9999.0,-,N/A,,Clear,0,2013-07-01 14:55:00
10:15 AM,72.7,59.0,62,30.18,10.0,North,-9999.0,-,N/A,,Clear,0,2013-07-01 15:15:00
10:35 AM,73.8,58.8,59,30.18,10.0,North,-9999.0,-,N/A,,Clear,0,2013-07-01 15:35:00
10:55 AM,75.0,58.8,57,30.17,10.0,North,-9999.0,-,N/A,,Scattered Clouds,0,2013-07-01 15:55:00
11:15 AM,73.8,57.9,58,30.17,10.0,North,-9999.0,-,N/A,,Scattered Clouds,0,2013-07-01 16:15:00
11:35 AM,75.6,58.3,55,30.17,10.0,North,-9999.0,-,N/A,,Mostly Cloudy,0,2013-07-01 16:35:00
11:55 AM,75.9,57.7,53,30.17,10.0,North,-9999.0,-,N/A,,Scattered Clouds,0,2013-07-01 16:55:00
12:15 PM,78.3,55.2,45,30.16,10.0,North,-9999.0,-,N/A,,Scattered Clouds,0,2013-07-01 17:15:00
12:35 PM,77.9,55.9,47,30.15,10.0,North,-9999.0,-,N/A,,Scattered Clouds,0,2013-07-01 17:35:00
12:55 PM,78.6,54.0,42,30.15,10.0,North,-9999.0,-,N/A,,Scattered Clouds,0,2013-07-01 17:55:00
1:15 PM,79.5,54.7,42,30.15,10.0,North,-9999.0,-,N/A,,Scattered Clouds,0,2013-07-01 18:15:00
1:35 PM,78.3,54.1,43,30.14,10.0,North,-9999.0,-,N/A,,Mostly Cloudy,0,2013-07-01 18:35:00
1:55 PM,79.0,53.6,41,30.14,10.0,North,-9999.0,-,N/A,,Mostly Cloudy,0,2013-07-01 18:55:00
2:15 PM,80.4,53.8,40,30.13,10.0,North,-9999.0,-,N/A,,Scattered Clouds,0,2013-07-01 19:15:00
2:35 PM,80.6,54.1,40,30.13,10.0,North,-9999.0,-,N/A,,Clear,0,2013-07-01 19:35:00
2:55 PM,81.0,52.5,37,30.12,10.0,North,-9999.0,-,N/A,,Scattered Clouds,0,2013-07-01 19:55:00
3:15 PM,82.0,53.1,37,30.12,10.0,North,-9999.0,-,N/A,,Clear,0,2013-07-01 20:15:00
3:35 PM,81.5,52.0,36,30.12,10.0,North,-9999.0,-,N/A,,Clear,0,2013-07-01 20:35:00
3:55 PM,81.9,52.3,36,30.11,10.0,North,-9999.0,-,N/A,,Clear,0,2013-07-01 20:55:00
4:15 PM,81.9,52.3,36,30.11,10.0,North,-9999.0,-,N/A,,Scattered Clouds,0,2013-07-01 21:15:00
4:35 PM,82.0,50.9,34,30.10,10.0,North,-9999.0,-,N/A,,Clear,0,2013-07-01 21:35:00
4:55 PM,82.4,51.4,34,30.10,10.0,North,-9999.0,-,N/A,,Clear,0,2013-07-01 21:55:00
5:15 PM,82.4,50.5,33,30.10,7.0,North,-9999.0,-,N/A,,Clear,0,2013-07-01 22:15:00
5:35 PM,81.5,49.8,33,30.10,7.0,North,-9999.0,-,N/A,,Clear,0,2013-07-01 22:35:00
5:55 PM,81.3,48.9,32,30.10,7.0,North,-9999.0,-,N/A,,Clear,0,2013-07-01 22:55:00
6:15 PM,81.7,48.0,31,30.09,7.0,North,-9999.0,-,N/A,,Clear,0,2013-07-01 23:15:00
6:35 PM,81.7,48.9,32,30.09,10.0,North,-9999.0,-,N/A,,Clear,0,2013-07-01 23:35:00
6:55 PM,81.5,49.3,32,30.09,10.0,North,-9999.0,-,N/A,,Clear,0,2013-07-01 23:55:00
7:15 PM,80.6,48.0,32,30.09,10.0,North,-9999.0,-,N/A,,Clear,0,2013-07-02 00:15:00
7:35 PM,80.6,47.7,31,30.09,10.0,North,-9999.0,-,N/A,,Clear,0,2013-07-02 00:35:00
7:55 PM,79.7,48.2,33,30.10,10.0,North,-9999.0,-,N/A,,Clear,0,2013-07-02 00:55:00
8:15 PM,77.9,47.8,35,30.10,10.0,North,-9999.0,-,N/A,,Clear,0,2013-07-02 01:15:00
8:35 PM,75.4,48.2,38,30.10,10.0,North,-9999.0,-,N/A,,Clear,0,2013-07-02 01:35:00
8:55 PM,72.5,48.0,42,30.11,10.0,North,-9999.0,-,N/A,,Clear,0,2013-07-02 01:55:00
9:15 PM,70.2,47.8,45,30.11,10.0,North,-9999.0,-,N/A,,Clear,0,2013-07-02 02:15:00
9:35 PM,68.0,49.1,51,30.11,10.0,North,-9999.0,-,N/A,,Clear,0,2013-07-02 02:35:00
9:55 PM,67.3,48.7,51,30.12,10.0,North,-9999.0,-,N/A,,Clear,0,2013-07-02 02:55:00
10:15 PM,66.2,49.8,55,30.12,10.0,North,-9999.0,-,N/A,,Clear,0,2013-07-02 03:15:00
10:35 PM,67.1,49.5,53,30.13,10.0,North,-9999.0,-,N/A,,Scattered Clouds,0,2013-07-02 03:35:00
10:55 PM,64.8,50.7,60,30.14,10.0,North,-9999.0,-,N/A,,Scattered Clouds,0,2013-07-02 03:55:00
11:15 PM,64.4,51.4,63,30.14,10.0,North,-9999.0,-,N/A,,Scattered Clouds,0,2013-07-02 04:15:00
11:35 PM,66.0,51.6,60,-9999,10.0,North,-9999.0,-,N/A,,Scattered Clouds,0,2013-07-02 04:35:00
11:55 PM,64.9,52.5,64,30.14,10.0,North,-9999.0,-,N/A,,Scattered Clouds,0,2013-07-02 04:55:00